Weather History for Burnet, TX

Change the Weather History Date:

Wednesday, December 19, 2012

  Actual Average Record
Temperature  
Mean Temperature 70 °F -  
Max Temperature 79 °F 55 °F 79 °F (2012)
Min Temperature 62 °F 34 °F 16 °F (1996)
Cooling Degree Days 6    
Growing Degree Days 20 (Base 50)    
Moisture  
Dew Point 58 °F    
Average Humidity 71    
Maximum Humidity 93    
Minimum Humidity 17    
Precipitation  
Precipitation 0.00 in - - ()
Sea Level Pressure  
Sea Level Pressure 29.74 in    
Wind  
Wind Speed 13 mph (SSW)    
Max Wind Speed 24 mph    
Max Gust Speed 36 mph    
Visibility 8 miles    
Events      
Averages and records for this station are not official NWS values.
T = Trace of Precipitation, MM = Missing Value Source: NWS Daily Summary

Daily Weather History Graph

Daily Weather History Graph

Search for Another Location

Airport:

Trip Planner

Search our weather history database for the weather conditions in past years. The results will help you decide how hot, cold, wet, or windy it might be!

Date:

Astronomy

Dec. 19, 2012 Rise Set
Actual Time 7:25 AM CST 5:35 PM CST
Civil Twilight 6:59 AM CST 6:01 PM CST
Nautical Twilight 6:28 AM CST 6:31 PM CST
Astronomical Twilight 5:59 AM CST 7:01 PM CST
Moon 12:01 PM CST (12/19) No Moon Set
Length of Visible Light 11h 02m
Length of Day
10h 09m
Waxing Crescent, 45% of the Moon is Illuminated
Dec 19
Waxing Crescent
Dec 19
First Quarter
Dec 28
Full
Jan 4
Last Quarter
Jan 11
New

Hourly Weather History & Observations

Time (CST) Temp. Dew Point Humidity Pressure Visibility Wind Dir Wind Speed Gust Speed Precip Events Conditions
12:29 AM 62.1 °F 57.0 °F 84% 29.83 in 10.0 mi South 11.5 mph - N/A   Mostly Cloudy
12:53 AM 63.0 °F 59.0 °F 87% 29.80 in 10.0 mi South 11.5 mph - N/A   Overcast
1:53 AM 64.0 °F 60.1 °F 87% 29.77 in 9.0 mi South 13.8 mph 20.7 mph N/A   Overcast
2:35 AM 64.0 °F 62.1 °F 93% 29.81 in 5.0 mi South 9.2 mph 19.6 mph N/A   Overcast
2:53 AM 64.0 °F 62.1 °F 93% 29.75 in 7.0 mi South 11.5 mph - N/A   Overcast
3:01 AM 64.0 °F 62.1 °F 93% 29.80 in 7.0 mi South 9.2 mph - N/A   Overcast
3:08 AM 64.0 °F 62.1 °F 93% 29.80 in 7.0 mi South 10.4 mph - N/A   Overcast
3:24 AM 64.9 °F 62.1 °F 90% 29.79 in 7.0 mi South 10.4 mph - N/A   Overcast
3:53 AM 64.9 °F 62.1 °F 90% 29.74 in 8.0 mi South 9.2 mph - N/A   Overcast
4:53 AM 64.9 °F 61.0 °F 87% 29.73 in 8.0 mi South 11.5 mph - N/A   Overcast
5:53 AM 66.0 °F 61.0 °F 84% 29.74 in 8.0 mi South 13.8 mph - N/A   Overcast
6:53 AM 66.9 °F 61.0 °F 81% 29.75 in 8.0 mi South 17.3 mph 25.3 mph N/A   Overcast
7:53 AM 66.9 °F 61.0 °F 81% 29.74 in 7.0 mi South 15.0 mph 27.6 mph N/A   Overcast
8:53 AM 68.0 °F 61.0 °F 78% 29.76 in 7.0 mi South 10.4 mph 20.7 mph N/A   Overcast
9:53 AM 70.0 °F 62.1 °F 76% 29.77 in 7.0 mi South 13.8 mph 24.2 mph N/A   Overcast
10:53 AM 73.9 °F 61.0 °F 64% 29.75 in 7.0 mi South 19.6 mph 29.9 mph N/A   Mostly Cloudy
11:07 AM 73.9 °F 60.1 °F 62% 29.78 in 6.0 mi South 17.3 mph 27.6 mph N/A   Haze
11:53 AM 77.0 °F 60.1 °F 56% 29.70 in 8.0 mi South 23.0 mph 33.4 mph N/A   Clear
12:53 PM 78.1 °F 60.1 °F 54% 29.67 in 8.0 mi South 21.9 mph 31.1 mph N/A   Clear
1:53 PM 78.1 °F 60.1 °F 54% 29.64 in 8.0 mi South 20.7 mph 33.4 mph N/A   Clear
2:53 PM 79.0 °F 59.0 °F 50% 29.62 in 8.0 mi South 13.8 mph 27.6 mph N/A   Clear
3:53 PM 78.1 °F 59.0 °F 52% 29.62 in 8.0 mi South 13.8 mph 25.3 mph N/A   Clear
4:53 PM 75.9 °F 59.0 °F 56% 29.62 in 8.0 mi South 15.0 mph 25.3 mph N/A   Clear
5:53 PM 73.9 °F 60.1 °F 62% 29.64 in 9.0 mi South 9.2 mph - N/A   Clear
6:53 PM 70.0 °F 59.0 °F 68% 29.67 in 8.0 mi SW 4.6 mph - N/A   Clear
7:53 PM 70.0 °F 59.0 °F 68% 29.71 in 8.0 mi WSW 3.5 mph - N/A   Clear
8:53 PM 69.1 °F 59.0 °F 70% 29.73 in 8.0 mi WSW 3.5 mph - N/A   Clear
9:53 PM 70.0 °F 57.9 °F 65% 29.79 in 8.0 mi WNW 11.5 mph - N/A   Partly Cloudy
10:53 PM 71.1 °F 32.0 °F 24% 29.85 in 4.0 mi WNW 18.4 mph 35.7 mph N/A   Haze
11:53 PM 63.0 °F 17.1 °F 17% 29.90 in 4.0 mi NW 24.2 mph 35.7 mph 0.00 in   Haze